[[{"header":{"parameterUnit":"m.s-1","parameterCategory":1,"la1":30.2991,"la2":30.254,"lo1":-89.0895,"lo2":-89.0444,"dy":0.0017,"dx":0.0017,"nx":28,"ny":28,"refTime":"2023-09-12T21:00:00:Z","depth":0,"parameterNumber":2,"parameterNumberName":"U-component_of_WINDS"},"data":[0,0,0,0,0,0,0,0,0,0,0,0,0,0,0,0,0,0,0,0,0,0,0,0,0,0,0,0,0,0,0,0,0,0,0,0,0,0,0,0,0,0,0,0,0,0,0,0,0,0,0,0,0,0,0,0,0,0,2.1823,2.1823,0,2.1869,2.1869,2.187,2.1895,2.1896,2.1896,2.1896,2.1942,2.1943,2.1945,0,0,0,0,0,0,0,0,0,0,0,0,0,2.1757,2.1758,2.1823,2.1823,2.1824,2.1869,2.1869,2.187,2.1895,2.1896,2.1896,2.1896,2.1942,2.1943,2.1945,0,0,0,0,0,0,0,0,0,0,0,0,0,2.1793,2.1759,2.1823,2.1842,2.1844,2.1868,2.1869,2.187,2.1895,2.1896,2.1896,2.1896,2.1941,2.1943,2.1945,2.1953,0,0,2.195,2.1951,0,0,0,0,0,0,0,0,2.1791,2.1795,2.1839,2.1841,2.1843,2.1876,2.1863,2.1898,2.1895,2.1876,2.1896,2.1896,2.192,2.1924,2.1932,2.1955,2.1957,2.195,2.1951,2.1952,2.1953,0,0,0,0,0,0,0,2.1788,2.1793,2.1841,2.1839,2.1842,2.1849,2.1854,2.187,2.1897,2.1878,2.188,2.1885,2.1922,2.193,2.1933,2.1958,2.195,2.1952,2.1953,2.1954,2.1992,2.1992,0,0,0,0,0,0,2.1783,2.1791,2.1839,2.1842,2.1817,2.185,2.1855,2.1866,2.1897,2.1902,2.1885,2.1886,2.1927,2.1931,2.1935,2.1947,2.1952,2.1954,2.1955,2.1992,2.1992,2.1992,0,0,0,0,0,0,2.1781,2.1787,2.1838,2.1817,2.1824,2.1851,2.1862,2.1866,2.1875,2.1902,2.1907,2.1889,2.1928,2.1933,2.1949,2.1949,2.1955,2.1956,2.1992,2.1992,2.1992,2.1972,0,0,0,0,0,0,2.1779,2.1786,2.1789,2.1817,2.1825,2.185,2.1862,2.1867,2.1878,2.188,2.1907,2.1912,2.1928,2.1946,2.1951,2.1952,2.1958,2.1992,2.1992,2.1992,2.1973,2.1971,2.197,0,0,0,0,0,2.1777,2.1781,2.1789,2.1795,2.183,2.185,2.1855,2.1874,2.1878,2.1882,2.1899,2.1911,2.1949,2.1947,2.1953,2.1955,2.1992,2.1992,2.1992,2.1973,2.1971,2.197,0,0,0,0,0,0,2.1752,2.1785,2.1794,2.1808,2.1826,2.1854,2.186,2.1871,2.1888,2.1889,2.1912,2.1918,2.1932,2.1945,2.1943,2.1965,2.1972,2.1973,2.1956,2.1954,2.1953,2.1949,2.1959,0,0,0,0,0,2.1749,2.1763,2.1791,2.18,2.1809,2.1833,2.1842,2.1856,2.1875,2.1883,2.1901,2.1919,2.1936,2.1946,2.1962,2.1975,2.1981,2.1979,2.1978,2.1976,2.1977,2.1985,2.1985,2.1991,2.1991,2.1991,0,0,2.1741,2.1761,2.1768,2.1796,2.1812,2.1825,2.1839,2.1853,2.1864,2.1885,2.1901,2.1915,2.1938,2.1952,2.196,2.1964,2.1977,2.1976,2.1975,2.1976,2.1985,2.1984,2.1984,2.1991,2.1991,2.1991,0,0,2.1734,2.1751,2.1761,2.1776,2.18,2.1816,2.1818,2.1845,2.1856,2.1873,2.1889,2.1902,2.1929,2.1945,2.1956,2.1957,2.1968,2.1962,2.1954,2.1962,2.1962,2.1961,2.1962,2.1962,2.1962,2.1962,2.1962,0,2.1722,2.1744,2.1764,2.1778,2.179,2.181,2.1821,2.1835,2.1862,2.187,2.1875,2.191,2.1926,2.1945,2.1946,2.1954,2.1958,2.1958,2.196,2.196,2.196,2.1961,2.1961,2.1961,2.1961,2.1961,2.1961,0,2.1727,2.1742,2.1747,2.1774,2.1787,2.1799,2.1822,2.1832,2.1844,2.186,2.1878,2.1898,2.1919,2.1925,2.1937,2.1946,2.1948,2.1956,2.1963,2.1958,2.1959,2.196,2.196,2.196,2.196,2.196,0,0,2.1705,2.1744,2.1746,2.1758,2.1787,2.1799,2.1812,2.1833,2.1842,2.186,2.1872,2.1896,2.1904,2.1916,2.1931,2.1938,2.1938,2.1945,2.1946,2.1943,2.1949,2.1943,2.1943,2.1946,2.1946,2.1946,2.1947,0,2.1702,2.1727,2.1747,2.1764,2.1778,2.1799,2.1811,2.1829,2.1845,2.1859,2.1876,2.1892,2.1902,2.191,2.1918,2.1936,2.1939,2.1936,2.1957,2.1957,2.195,2.1943,2.1936,2.1936,2.1948,2.1948,2.1948,0,2.1702,2.172,2.1739,2.1767,2.1774,2.1784,2.1805,2.1819,2.1841,2.1852,2.1867,2.1882,2.1897,2.1903,2.1925,2.1923,2.1933,2.1943,2.1944,2.1946,2.1952,2.1945,2.1937,2.1937,2.1949,2.1949,2.1949,0,2.1683,2.1713,2.1729,2.1739,2.1772,2.1778,2.1792,2.1815,2.1826,2.1846,2.1854,2.1874,2.1885,2.1901,2.1921,2.1924,2.1941,2.1949,2.1951,2.195,2.1953,2.1952,2.1946,2.1959,2.1959,2.1959,2.1959,0,2.1678,2.1688,2.1721,2.173,2.1743,2.1767,2.1779,2.1794,2.1814,2.1827,2.1847,2.1859,2.1885,2.19,2.1916,2.1932,2.1937,2.1947,2.1951,2.1945,2.1943,2.1951,2.1951,2.196,2.1959,2.1959,2.1959,0,2.1659,2.1681,2.1699,2.173,2.1737,2.1746,2.1772,2.1782,2.1799,2.1815,2.182,2.1847,2.1866,2.1888,2.1915,2.1926,2.194,2.1946,2.1933,2.1935,2.1936,2.1935,2.1934,2.1935,2.1948,2.1947,2.1947,0,2.1653,2.1662,2.1694,2.1704,2.1718,2.1734,2.1747,2.177,2.1783,2.1809,2.1816,2.1837,2.1855,2.1885,2.1906,2.1927,2.1934,2.1932,2.1937,2.1931,2.1934,2.1933,2.1934,2.193,2.193,2.193,2.1929,0,2.1641,2.1652,2.167,2.1691,2.1706,2.1724,2.1743,2.175,2.1778,2.1791,2.1811,2.1825,2.1853,2.1873,2.1897,2.1911,2.1925,2.1928,2.1929,2.1923,2.1915,2.1919,2.1929,2.1928,2.1928,2.1928,2.1928,2.1928,2.1629,2.1638,2.1662,2.1681,2.1698,2.1716,2.1727,2.1746,2.1763,2.1788,2.1801,2.1821,2.1844,2.1877,2.1892,2.1908,2.1913,2.1915,2.1915,2.1915,2.1914,2.1913,2.1913,2.1913,2.1913,2.1913,2.1913,0,2.1618,2.1635,2.1652,2.1678,2.1693,2.1706,2.1728,2.174,2.1757,2.1778,2.1796,2.1819,2.184,2.1864,2.1886,2.1894,2.1901,2.1899,2.1899,2.1902,2.1908,2.1905,2.1893,2.1893,2.1893,2.1893,2.1893,2.1893,2.1613,2.163,2.1644,2.1669,2.1686,2.1706,2.1718,2.1735,2.1751,2.1777,2.1794,2.181,2.1833,2.1857,2.1876,2.1883,2.189,2.1886,2.1895,2.19,2.1902,2.1903,2.19,2.1888,2.1888,2.1887,2.1887,2.1887]},{"header":{"parameterUnit":"m.s-1","parameterCategory":1,"la1":30.2991,"la2":30.254,"lo1":-89.0895,"lo2":-89.0444,"dy":0.0017,"dx":0.0017,"nx":28,"ny":28,"refTime":"2023-09-12T21:00:00:Z","depth":0,"parameterNumber":3,"parameterNumberName":"V-component_of_WINDS"},"data":[0,0,0,0,0,0,0,0,0,0,0,0,0,0,0,0,0,0,0,0,0,0,0,0,0,0,0,0,0,0,0,0,0,0,0,0,0,0,0,0,0,0,0,0,0,0,0,0,0,0,0,0,0,0,0,0,0,0,-1.2044,-1.2043,0,-1.197,-1.1969,-1.1968,-1.1908,-1.1908,-1.1907,-1.1907,-1.183,-1.1829,-1.1828,0,0,0,0,0,0,0,0,0,0,0,0,0,-1.2135,-1.2134,-1.2044,-1.2043,-1.2042,-1.197,-1.1969,-1.1968,-1.1909,-1.1908,-1.1907,-1.1906,-1.1831,-1.1829,-1.1827,0,0,0,0,0,0,0,0,0,0,0,0,0,-1.2082,-1.2134,-1.2044,-1.2004,-1.2,-1.197,-1.1969,-1.1967,-1.1909,-1.1908,-1.1907,-1.1906,-1.1831,-1.1829,-1.1827,-1.1831,0,0,-1.182,-1.1819,0,0,0,0,0,0,0,0,-1.2085,-1.2079,-1.2011,-1.2007,-1.2002,-1.1947,-1.1973,-1.1922,-1.1909,-1.1943,-1.1907,-1.1906,-1.187,-1.1865,-1.1853,-1.1828,-1.1825,-1.182,-1.1819,-1.1818,-1.1817,0,0,0,0,0,0,0,-1.2089,-1.2082,-1.2015,-1.201,-1.2004,-1.199,-1.1981,-1.1963,-1.1913,-1.194,-1.1936,-1.1928,-1.1867,-1.1855,-1.185,-1.1823,-1.182,-1.1818,-1.1817,-1.1816,-1.1799,-1.18,0,0,0,0,0,0,-1.2099,-1.2085,-1.2017,-1.2012,-1.2042,-1.1989,-1.1979,-1.1966,-1.1913,-1.1904,-1.1928,-1.1925,-1.1859,-1.1853,-1.1847,-1.1849,-1.1818,-1.1816,-1.1815,-1.1798,-1.1799,-1.18,0,0,0,0,0,0,-1.2101,-1.2093,-1.202,-1.2047,-1.2037,-1.1988,-1.1974,-1.1965,-1.1952,-1.1904,-1.1895,-1.1925,-1.1858,-1.1851,-1.1836,-1.1846,-1.1815,-1.1813,-1.1797,-1.1798,-1.18,-1.1852,0,0,0,0,0,0,-1.2104,-1.2094,-1.2095,-1.2048,-1.2036,-1.201,-1.1974,-1.1964,-1.1948,-1.1943,-1.1898,-1.189,-1.1857,-1.184,-1.1834,-1.1842,-1.1811,-1.1796,-1.1798,-1.1799,-1.185,-1.1855,-1.186,0,0,0,0,0,-1.2107,-1.2113,-1.2096,-1.2088,-1.2036,-1.201,-1.2003,-1.1966,-1.195,-1.195,-1.1919,-1.1891,-1.1846,-1.1839,-1.1832,-1.1839,-1.1795,-1.1797,-1.1799,-1.1847,-1.1854,-1.186,0,0,0,0,0,0,-1.2163,-1.2106,-1.2086,-1.2077,-1.2049,-1.2,-1.2,-1.1974,-1.195,-1.1946,-1.1901,-1.1891,-1.1881,-1.1859,-1.1852,-1.1841,-1.1817,-1.1817,-1.1856,-1.1862,-1.1867,-1.1873,-1.1809,0,0,0,0,0,-1.2174,-1.2158,-1.2109,-1.2106,-1.2093,-1.2049,-1.2036,-1.201,-1.1979,-1.1967,-1.1935,-1.1906,-1.1885,-1.1872,-1.1851,-1.1846,-1.1836,-1.1848,-1.1853,-1.1858,-1.1859,-1.1855,-1.186,-1.1806,-1.1806,-1.1806,0,0,-1.2197,-1.2164,-1.2156,-1.2116,-1.2091,-1.2076,-1.2039,-1.2024,-1.2012,-1.1964,-1.1949,-1.1924,-1.1889,-1.188,-1.1874,-1.1861,-1.1872,-1.1861,-1.1865,-1.1863,-1.1858,-1.1863,-1.1868,-1.1808,-1.1807,-1.1807,0,0,-1.223,-1.2204,-1.2198,-1.2174,-1.2137,-1.2108,-1.2107,-1.2062,-1.2044,-1.2028,-1.1992,-1.1977,-1.1942,-1.1919,-1.1902,-1.1928,-1.1901,-1.1922,-1.195,-1.1947,-1.1951,-1.1955,-1.1964,-1.1968,-1.1924,-1.1924,-1.1924,0,-1.2263,-1.2238,-1.2198,-1.2185,-1.2169,-1.2125,-1.2119,-1.2098,-1.2056,-1.2046,-1.2031,-1.1987,-1.196,-1.1945,-1.1951,-1.1939,-1.1937,-1.1927,-1.1954,-1.1957,-1.196,-1.1968,-1.1972,-1.1927,-1.1926,-1.1926,-1.1926,0,-1.2281,-1.2264,-1.2264,-1.2224,-1.2208,-1.2199,-1.2158,-1.2146,-1.2121,-1.2094,-1.2078,-1.2044,-1.2015,-1.201,-1.1985,-1.1991,-1.1984,-1.1963,-1.1937,-1.1968,-1.1976,-1.1978,-1.1931,-1.193,-1.1929,-1.1928,0,0,-1.2346,-1.2285,-1.2286,-1.2268,-1.2224,-1.2211,-1.22,-1.2171,-1.2162,-1.2135,-1.2125,-1.2097,-1.2077,-1.2058,-1.2031,-1.2028,-1.2051,-1.2007,-1.2006,-1.2016,-1.2056,-1.2072,-1.2076,-1.2033,-1.2034,-1.2034,-1.2059,0,-1.2372,-1.235,-1.2314,-1.2304,-1.2288,-1.2247,-1.2237,-1.221,-1.2184,-1.2167,-1.2139,-1.212,-1.2095,-1.2084,-1.2079,-1.2049,-1.2058,-1.2047,-1.2023,-1.2023,-1.2033,-1.208,-1.2096,-1.2121,-1.2061,-1.2062,-1.2062,0,-1.24,-1.2375,-1.2363,-1.2321,-1.2313,-1.2306,-1.2277,-1.2261,-1.223,-1.2211,-1.2191,-1.2162,-1.2148,-1.2126,-1.2107,-1.21,-1.2088,-1.2072,-1.2072,-1.2068,-1.2044,-1.2077,-1.2128,-1.2132,-1.2066,-1.2065,-1.2065,0,-1.2448,-1.2412,-1.24,-1.2386,-1.2337,-1.2333,-1.2312,-1.228,-1.2265,-1.224,-1.223,-1.2205,-1.219,-1.2171,-1.2135,-1.2122,-1.212,-1.2095,-1.2105,-1.2106,-1.2106,-1.2106,-1.2156,-1.2099,-1.2099,-1.2099,-1.2099,0,-1.2481,-1.2475,-1.2422,-1.2415,-1.2407,-1.2366,-1.236,-1.2336,-1.2307,-1.2295,-1.2258,-1.2247,-1.2201,-1.2185,-1.2157,-1.2145,-1.2139,-1.2124,-1.2117,-1.2127,-1.2129,-1.2118,-1.2116,-1.21,-1.21,-1.2099,-1.2099,0,-1.2534,-1.2498,-1.2482,-1.2437,-1.2426,-1.2423,-1.2384,-1.2376,-1.2349,-1.2334,-1.2328,-1.2285,-1.2264,-1.2227,-1.2195,-1.2176,-1.2171,-1.2158,-1.2181,-1.2177,-1.2189,-1.2188,-1.2233,-1.2237,-1.2178,-1.2179,-1.2179,0,-1.2557,-1.2551,-1.2506,-1.2496,-1.2476,-1.2459,-1.2444,-1.2405,-1.2391,-1.2355,-1.2351,-1.2327,-1.2306,-1.2275,-1.2241,-1.2217,-1.2203,-1.222,-1.2199,-1.221,-1.2203,-1.2204,-1.2203,-1.2225,-1.2226,-1.2227,-1.2227,0,-1.2601,-1.2584,-1.2564,-1.2538,-1.2522,-1.2499,-1.2475,-1.2468,-1.2423,-1.2409,-1.2388,-1.2372,-1.234,-1.2317,-1.2288,-1.2267,-1.224,-1.2234,-1.2235,-1.2246,-1.2259,-1.2252,-1.2194,-1.2233,-1.2233,-1.2232,-1.2232,-1.2232,-1.2639,-1.2633,-1.2601,-1.258,-1.2558,-1.2536,-1.2526,-1.2498,-1.2479,-1.245,-1.2428,-1.2408,-1.2377,-1.2336,-1.2317,-1.2301,-1.2288,-1.2289,-1.229,-1.2291,-1.2295,-1.2263,-1.2295,-1.2295,-1.2295,-1.2295,-1.2295,0,-1.2682,-1.2659,-1.2641,-1.2608,-1.2592,-1.2569,-1.2541,-1.2529,-1.2512,-1.2486,-1.2466,-1.2442,-1.2419,-1.2384,-1.2359,-1.2353,-1.234,-1.2348,-1.2348,-1.2344,-1.2308,-1.2309,-1.2359,-1.2359,-1.2359,-1.2359,-1.2359,-1.2359,-1.2702,-1.269,-1.2669,-1.2646,-1.2623,-1.2604,-1.259,-1.257,-1.2549,-1.2523,-1.2505,-1.2483,-1.2453,-1.2426,-1.2404,-1.2395,-1.2387,-1.2399,-1.2385,-1.2352,-1.2346,-1.234,-1.2342,-1.2398,-1.2398,-1.2423,-1.2423,-1.2423]}]]